Time,TemperatureF,DewpointF,PressureIn,WindDirection,WindDirectionDegrees,WindSpeedMPH,WindSpeedGustMPH,Humidity,HourlyPrecipIn,Conditions,Clouds,dailyrainin,SoftwareType,DateUTC
2013-11-04 00:52:00,53.0,-99.9,-100.00,WSW,241,10.0,11.0,-999,-99.99,,,-99.99,,2013-11-04 08:52:00,
2013-11-04 01:02:00,53.0,-99.9,-100.00,WSW,241,10.0,11.0,-999,-99.99,,,-99.99,,2013-11-04 09:02:00,
2013-11-04 01:12:00,53.0,-99.9,-100.00,WSW,241,10.0,11.0,-999,-99.99,,,-99.99,,2013-11-04 09:12:00,
2013-11-04 01:22:00,54.0,-99.9,-100.00,NW,309,4.0,5.0,-999,-99.99,,,-99.99,,2013-11-04 09:22:00,
2013-11-04 01:33:00,54.0,-99.9,-100.00,NW,309,4.0,5.0,-999,-99.99,,,-99.99,,2013-11-04 09:33:00,
2013-11-04 02:30:00,50.0,-99.9,-100.00,SW,231,21.0,23.0,-999,-99.99,,,-99.99,,2013-11-04 10:30:00,
2013-11-04 03:22:00,50.0,-99.9,-100.00,SW,231,21.0,23.0,-999,-99.99,,,-99.99,,2013-11-04 11:22:00,
2013-11-04 03:40:00,50.0,-99.9,-100.00,WNW,302,15.0,21.0,-999,-99.99,,,-99.99,,2013-11-04 11:40:00,
2013-11-04 04:22:00,50.0,-99.9,-100.00,WNW,302,15.0,21.0,-999,-99.99,,,-99.99,,2013-11-04 12:22:00,
2013-11-04 04:32:00,50.0,-99.9,-100.00,WNW,302,15.0,21.0,-999,-99.99,,,-99.99,,2013-11-04 12:32:00,
2013-11-04 06:22:00,48.0,-99.9,-100.00,East,101,4.0,6.0,-999,-99.99,,,-99.99,,2013-11-04 14:22:00,
2013-11-04 06:32:00,48.0,-99.9,-100.00,East,101,4.0,6.0,-999,-99.99,,,-99.99,,2013-11-04 14:32:00,
2013-11-04 06:40:00,49.0,-99.9,-100.00,West,272,6.0,6.0,-999,-99.99,,,-99.99,,2013-11-04 14:40:00,
2013-11-04 07:20:00,51.0,-99.9,-100.00,WSW,256,10.0,16.0,-999,-99.99,,,-99.99,,2013-11-04 15:20:00,
2013-11-04 07:22:00,49.0,-99.9,-100.00,West,272,6.0,6.0,-999,-99.99,,,-99.99,,2013-11-04 15:22:00,
2013-11-04 07:32:00,49.0,-99.9,-100.00,West,272,6.0,6.0,-999,-99.99,,,-99.99,,2013-11-04 15:32:00,
2013-11-04 08:13:00,51.0,-99.9,-100.00,WSW,256,10.0,16.0,-999,-99.99,,,-99.99,,2013-11-04 16:13:00,
2013-11-04 09:12:00,56.0,-99.9,-100.00,NE,48,1.0,8.0,-999,-99.99,,,-99.99,,2013-11-04 17:12:00,
2013-11-04 10:20:00,62.0,-99.9,-100.00,East,93,7.0,7.0,-999,-99.99,,,-99.99,,2013-11-04 18:20:00,
2013-11-04 10:50:00,61.0,-99.9,-100.00,NNE,22,8.0,10.0,-999,-99.99,,,-99.99,,2013-11-04 18:50:00,
2013-11-04 11:12:00,62.0,-99.9,-100.00,East,93,7.0,7.0,-999,-99.99,,,-99.99,,2013-11-04 19:12:00,
2013-11-04 11:42:00,61.0,-99.9,-100.00,NNE,22,8.0,10.0,-999,-99.99,,,-99.99,,2013-11-04 19:42:00,
2013-11-04 13:50:00,63.0,-99.9,-100.00,South,177,10.0,10.0,-999,-99.99,,,-99.99,,2013-11-04 21:50:00,
2013-11-04 14:43:00,63.0,-99.9,-100.00,South,177,10.0,10.0,-999,-99.99,,,-99.99,,2013-11-04 22:43:00,
2013-11-04 16:50:00,52.0,-99.9,-100.00,WSW,257,14.0,20.0,-999,-99.99,,,-99.99,,2013-11-05 00:50:00,
2013-11-04 17:42:00,52.0,-99.9,-100.00,WSW,257,14.0,20.0,-999,-99.99,,,-99.99,,2013-11-05 01:42:00,
2013-11-04 18:52:00,54.0,-99.9,-100.00,WNW,291,8.0,10.0,-999,-99.99,,,-99.99,,2013-11-05 02:52:00,
2013-11-04 19:02:00,54.0,-99.9,-100.00,WNW,291,8.0,10.0,-999,-99.99,,,-99.99,,2013-11-05 03:02:00,
2013-11-04 21:54:00,51.0,-99.9,-100.00,WNW,289,6.0,10.0,-999,-99.99,,,-99.99,,2013-11-05 05:54:00,
2013-11-04 22:03:00,51.0,-99.9,-100.00,WNW,289,6.0,10.0,-999,-99.99,,,-99.99,,2013-11-05 06:03:00,
2013-11-04 22:22:00,51.0,-99.9,-100.00,West,265,5.0,8.0,-999,-99.99,,,-99.99,,2013-11-05 06:22:00,
2013-11-04 22:52:00,48.0,-99.9,-100.00,WNW,295,6.0,7.0,-999,-99.99,,,-99.99,,2013-11-05 06:52:00,
2013-11-04 23:02:00,48.0,-99.9,-100.00,WNW,295,6.0,7.0,-999,-99.99,,,-99.99,,2013-11-05 07:02:00,
2013-11-04 23:11:00,48.0,-99.9,-100.00,WNW,295,6.0,7.0,-999,-99.99,,,-99.99,,2013-11-05 07:11:00,